AirNav   ProFlight Series 2 Aviation Headset
 
 1036 users online  

IL61 Vienna Correctional Center Heliport
Grantsburg, Illinois, USA

GOING TO GRANTSBURG?


FAA INFORMATION EFFECTIVE 16 JULY 2020

Location

FAA Identifier: IL61
Lat/Long: 37-23-51.1870N 088-46-27.2110W
37-23.853117N 088-46.453517W
37.3975519,-88.7742253
(estimated)
Elevation: 510 ft. / 155 m (estimated)
Variation: 01E (1985)
From city: 2 miles E of GRANTSBURG, IL
Time zone: UTC -5 (UTC -6 during Standard Time)
Zip code: 62995

Heliport Operations

Heliport use: Private use. Permission required prior to landing
Activation date: 04/1988
Control tower: no
ARTCC: MEMPHIS CENTER
FSS: COLUMBIA FLIGHT SERVICE STATION
Attendance: UNATNDD
Wind indicator: yes
Segmented circle: no

Heliport Communications

WX AWOS-3 at M30 (13 nm S): 124.175 (618-524-7483)

Nearby radio navigation aids

VOR radial/distance  VOR name  Freq  Var
CNGr004/23.5CUNNINGHAM VOR/DME113.1003E
MWAr148/24.2MARION VOR/DME110.4004E

 
NDB name  Hdg/Dist  Freq  Var  ID
CAIRO047/29.539700ECIR -.-. .. .-.

Heliport Services

Runway Information

Helipad H1

Dimensions: 60 x 60 ft. / 18 x 18 m
Surface: concrete
Traffic pattern: leftleft

Heliport Ownership and Management from official FAA records

Ownership: Publicly-owned
Owner: ILLINOIS DEPT OF CORRECTIONS
1301 CONCORDIA COURT
SPRINGFIELD, IL 62702
Phone 618-658-8371
Manager: TERRY GRISSOM
VIENNA C.C. 6695 ST, ROUTE 146 E
VIENNA, IL 62995
Phone 618-658-8371

Additional Remarks

FOR CD CTC MEMPHIS ARTCC AT 901-368-8453.

Instrument Procedures

There are no published instrument procedures at IL61.

Some nearby airports with instrument procedures:

KPAH - Barkley Regional Airport (20 nm S)
KMWA - Veterans Airport of Southern Illinois (24 nm NW)
KHSB - Harrisburg-Raleigh Airport (27 nm NE)
KCIR - Cairo Regional Airport (29 nm SW)
5M9 - Marion-Crittenden County Airport (32 nm E)
 
Loc | Ops | Rwys | IFR | FBO | Links
Com | Nav | Svcs | Stats | Notes
Area around IL61 (Vienna Correctional Center Heliport)
 
Road maps at: MapQuest Bing Google
 
Aerial photo
No photo
 
Sectional chart

 
Airport distance calculator
Flying to Vienna Correctional Center Heliport? Find the distance to fly.

From to IL61

Sunrise and sunset
Times for 09-Aug-2020
 Local
(UTC-5)
 Zulu
(UTC)
Morning civil twilight05:4010:40
Sunrise06:0811:08
Sunset19:5300:53
Evening civil twilight20:2101:21

Current date and time
Zulu (UTC)  09-Aug-2020 22:53:22
Local (UTC-5)  09-Aug-2020 17:53:22
 
METAR
KM30 
13nm S 
092235Z AUTO 22005KT SCT031 BKN110 29/23 A3005 RMK AO2 LTG DSNT N AND NE T02930232
KPAH 
20nm S 
092153Z 21004KT 10SM FEW030 FEW041 SCT120 31/24 A3004 RMK AO2 LTG DSNT E SLP168 T03110244
KMWA 
24nm NW 
092146Z 18005KT 10SM SCT029 SCT080 BKN200 30/25 A3005
TAF
KPAH 
20nm S 
091720Z 0918/1018 20007KT P6SM VCSH FEW050 SCT100 FM100000 20005KT P6SM FEW100 SCT250
NOTAMs
Click for the latest NOTAMs
NOTAMs are issued by the DoD/FAA and will open in a separate window not controlled by AirNav.

 

 
 

Would you like to see your business listed on this page?

 If your business provides an interesting product or service to pilots, flight crews, aircraft, or users of the Vienna Correctional Center Heliport, you should consider listing it here.  To start the listing process, click on the button below
 
Add a business
 

Other Pages about Vienna Correctional Center Heliport

Update a link
 
Copyright © AirNav, LLC. All rights reserved. Privacy Policy  Contact